Weather History for KAUG - June, 2013

Change the Weather History Date:

Thursday, June 27, 2013

  Actual Average Record
Temperature  
Mean Temperature 60 °F 67 °F  
Max Temperature 66 °F 77 °F 93 °F (1999)
Min Temperature 55 °F 58 °F 48 °F (2004)
Degree Days  
Heating Degree Days 4 1  
Month to date heating degree days 89  
Since 1 June heating degree days 89  
Since 1 July heating degree days 7415  
Cooling Degree Days 0 3  
Month to date cooling degree days 53  
Year to date cooling degree days 62  
Since 1 June cooling degree days 53  
Growing Degree Days 10 (Base 50)    
Moisture  
Dew Point 57 °F    
Average Humidity 96    
Maximum Humidity 100    
Minimum Humidity 84    
Precipitation  
Precipitation 0.02 in 0.11 in 2.19 in (1998)
Month to date precipitation 3.25  
Year to date precipitation 19.14  
Sea Level Pressure  
Sea Level Pressure 29.87 in    
Wind  
Wind Speed 4 mph (SE)    
Max Wind Speed 9 mph    
Max Gust Speed -    
Visibility 4 miles    
Events Fog , Rain    
T = Trace of Precipitation, MM = Missing Value Source: NWS Daily Summary

Daily Weather History Graph

Daily Weather History Graph

Search for Another Location

Airport or City:

Trip Planner

Search our weather history database for the weather conditions in past years. The results will help you decide how hot, cold, wet, or windy it might be!

Date:

Astronomy

Jun. 27, 2013 Rise Set
Actual Time 4:57 AM EDT 8:27 PM EDT
Civil Twilight 4:20 AM EDT 9:03 PM EDT
Nautical Twilight 3:32 AM EDT 9:52 PM EDT
Astronomical Twilight 2:30 AM EDT 10:54 PM EDT
Moon 11:09 PM EDT (6/27) 10:06 AM EDT (6/27)
Length of Visible Light 16h 43m
Length of Day
15h 30m
Waning Gibbous, 76% of the Moon is Illuminated
Jun 27
Waning Gibbous
Jun 30
Last Quarter
Jul 8
New
Jul 15
First Quarter
Jul 22
Full

Hourly Weather History & Observations

Time (EDT) Temp. Dew Point Humidity Pressure Visibility Wind Dir Wind Speed Gust Speed Precip Events Conditions
12:53 AM 60.1 °F 59.0 °F 96% 29.88 in 4.0 mi Calm Calm - N/A   Overcast
1:53 AM 59.0 °F 57.9 °F 96% 29.88 in 4.0 mi Variable 3.5 mph - 0.01 in   Overcast
2:53 AM 59.0 °F 57.9 °F 96% 29.87 in 4.0 mi South 3.5 mph - N/A   Overcast
3:23 AM 57.2 °F 57.2 °F 100% 29.87 in 2.5 mi Variable 4.6 mph - N/A   Overcast
3:41 AM 57.2 °F 57.2 °F 100% 29.87 in 3.0 mi South 3.5 mph - N/A   Overcast
3:50 AM 57.2 °F 57.2 °F 100% 29.87 in 2.0 mi SSE 4.6 mph - N/A   Overcast
3:53 AM 57.0 °F 57.0 °F 100% 29.87 in 2.0 mi South 4.6 mph - N/A   Overcast
4:33 AM 57.2 °F 55.4 °F 94% 29.85 in 1.5 mi South 5.8 mph - N/A   Overcast
4:53 AM 57.0 °F 55.9 °F 96% 29.88 in 1.5 mi Variable 3.5 mph - N/A   Overcast
5:02 AM 57.2 °F 55.4 °F 94% 29.88 in 2.5 mi Calm Calm - N/A   Overcast
5:11 AM 55.4 °F 55.4 °F 100% 29.88 in 3.0 mi SSW 3.5 mph - N/A   Overcast
5:27 AM 55.4 °F 55.4 °F 100% 29.87 in 2.5 mi SSE 5.8 mph - N/A   Overcast
5:41 AM 55.4 °F 55.4 °F 100% 29.87 in 1.8 mi South 5.8 mph - N/A   Overcast
5:53 AM 55.9 °F 55.9 °F 100% 29.88 in 1.5 mi South 6.9 mph - N/A   Overcast
6:10 AM 55.4 °F 55.4 °F 100% 29.86 in 2.0 mi SSE 5.8 mph - N/A   Overcast
6:18 AM 55.4 °F 55.4 °F 100% 29.86 in 1.2 mi South 5.8 mph - N/A   Overcast
6:42 AM 55.4 °F 55.4 °F 100% 29.87 in 2.0 mi SSE 5.8 mph - N/A   Overcast
6:53 AM 55.9 °F 55.9 °F 100% 29.88 in 1.8 mi Calm Calm - N/A   Overcast
7:07 AM 55.4 °F 55.4 °F 100% 29.88 in 0.5 mi Calm Calm - N/A Fog Fog
7:45 AM 55.4 °F 55.4 °F 100% 29.88 in 0.2 mi SSE 5.8 mph - N/A Fog Fog
7:53 AM 55.9 °F 55.9 °F 100% 29.88 in 0.2 mi SSE 6.9 mph - N/A Fog Fog
8:02 AM 55.4 °F 55.4 °F 100% 29.88 in 0.2 mi SSE 5.8 mph - N/A Fog Fog
8:22 AM 55.4 °F 55.4 °F 100% 29.88 in 0.5 mi South 5.8 mph - N/A Fog Fog
8:32 AM 55.4 °F 55.4 °F 100% 29.88 in 1.2 mi South 6.9 mph - N/A   Overcast
8:41 AM 55.4 °F 55.4 °F 100% 29.88 in 0.5 mi SSE 6.9 mph - N/A Fog Fog
8:53 AM 55.9 °F 55.9 °F 100% 29.89 in 0.8 mi South 4.6 mph - N/A   Mist
9:16 AM 57.2 °F 55.4 °F 94% 29.89 in 1.2 mi Calm Calm - N/A   Overcast
9:53 AM 57.0 °F 57.0 °F 100% 29.89 in 1.5 mi SSE 4.6 mph - N/A   Overcast
10:36 AM 57.2 °F 57.2 °F 100% 29.88 in 2.0 mi SE 4.6 mph - N/A   Overcast
10:53 AM 57.9 °F 57.9 °F 100% 29.88 in 1.8 mi Variable 3.5 mph - N/A   Overcast
11:12 AM 59.0 °F 57.2 °F 94% 29.87 in 2.5 mi Variable 3.5 mph - N/A   Overcast
11:20 AM 59.0 °F 57.2 °F 94% 29.87 in 4.0 mi South 4.6 mph - N/A   Overcast
11:53 AM 60.1 °F 59.0 °F 96% 29.87 in 5.0 mi SSE 6.9 mph - N/A   Overcast
12:53 PM 62.1 °F 59.0 °F 90% 29.88 in 10.0 mi Calm Calm - N/A   Overcast
1:10 PM 62.6 °F 60.8 °F 94% 29.87 in 10.0 mi SSE 4.6 mph - N/A   Overcast
1:53 PM 64.0 °F 61.0 °F 90% 29.86 in 10.0 mi SSE 5.8 mph - N/A   Overcast
2:53 PM 66.0 °F 62.1 °F 87% 29.84 in 10.0 mi Calm Calm - N/A   Overcast
3:53 PM 66.0 °F 61.0 °F 84% 29.86 in 10.0 mi SSE 9.2 mph - N/A   Overcast
4:53 PM 66.0 °F 61.0 °F 84% 29.85 in 10.0 mi South 5.8 mph - N/A   Overcast
5:53 PM 64.0 °F 61.0 °F 90% 29.84 in 10.0 mi ESE 8.1 mph - N/A   Overcast
6:35 PM 62.6 °F 60.8 °F 94% 29.84 in 10.0 mi SE 8.1 mph - N/A   Overcast
6:53 PM 62.1 °F 60.1 °F 93% 29.85 in 9.0 mi ESE 6.9 mph - N/A   Overcast
7:53 PM 61.0 °F 59.0 °F 93% 29.87 in 4.0 mi SE 5.8 mph - N/A   Overcast
8:53 PM 60.1 °F 59.0 °F 96% 29.87 in 5.0 mi East 5.8 mph - N/A   Overcast
9:03 PM 60.8 °F 59.0 °F 94% 29.87 in 5.0 mi ESE 6.9 mph - N/A   Overcast
9:32 PM 60.8 °F 59.0 °F 94% 29.88 in 2.5 mi ESE 3.5 mph - N/A   Overcast
9:45 PM 60.8 °F 59.0 °F 94% 29.88 in 1.8 mi ESE 4.6 mph - N/A   Overcast
9:53 PM 60.1 °F 59.0 °F 96% 29.89 in 1.8 mi East 5.8 mph - 0.01 in   Overcast
10:00 PM 60.8 °F 59.0 °F 94% 29.88 in 2.0 mi East 8.1 mph - N/A   Overcast
10:23 PM 59.0 °F 57.2 °F 94% 29.87 in 4.0 mi East 8.1 mph - N/A   Overcast
10:49 PM 57.2 °F 57.2 °F 100% 29.88 in 2.0 mi East 8.1 mph - N/A   Overcast
10:53 PM 57.9 °F 57.0 °F 97% 29.88 in 2.0 mi East 6.9 mph - N/A   Overcast
11:07 PM 57.2 °F 57.2 °F 100% 29.87 in 5.0 mi East 6.9 mph - N/A   Overcast
11:53 PM 57.9 °F 57.0 °F 97% 29.87 in 10.0 mi East 8.1 mph - 0.00 in Rain Light Rain